TAP36RC LPPT-LPPR

Flight info

Callsign TAP36RC
Flight time 0h 31m
Altitude 22000
Route IXIDA DCT ABLEG
Aircraft A319/M-SDE3FGHIRWY/LB1

Departure

Time 2026-05-03 22:18
Airport Lisbon Humberto Delgado Airport (LPPT)

Arrival

Time 2026-05-03 22:49
Airport Francisco de Sá Carneiro Airport (LPPR)
Time Latitude Longitude Altitude Speed Heading
2026-05-03 21:56 38.76778 -9.13577 345 ft 0 kts 258°
2026-05-03 22:09 38.76779 -9.13575 352 ft 1 kts 258°
2026-05-03 22:09 38.76782 -9.13553 347 ft 3 kts 256°
2026-05-03 22:09 38.76787 -9.13528 349 ft 3 kts 253°
2026-05-03 22:10 38.76804 -9.13482 352 ft 3 kts 225°
2026-05-03 22:10 38.76816 -9.13470 352 ft 2 kts 177°
2026-05-03 22:10 38.76821 -9.13470 349 ft 0 kts 168°
2026-05-03 22:14 38.76813 -9.13468 351 ft 4 kts 168°
2026-05-03 22:14 38.76764 -9.13455 344 ft 10 kts 169°
2026-05-03 22:14 38.76678 -9.13442 345 ft 14 kts 196°
2026-05-03 22:14 38.76644 -9.13549 355 ft 15 kts 258°
2026-05-03 22:15 38.76621 -9.13692 346 ft 18 kts 258°
2026-05-03 22:15 38.76594 -9.13861 348 ft 21 kts 258°
2026-05-03 22:15 38.76540 -9.14041 351 ft 22 kts 227°
2026-05-03 22:15 38.76504 -9.14203 344 ft 15 kts 293°
2026-05-03 22:16 38.76515 -9.14236 339 ft 0 kts 292°
2026-05-03 22:16 38.76524 -9.14262 339 ft 6 kts 292°
2026-05-03 22:16 38.76546 -9.14331 333 ft 11 kts 292°
2026-05-03 22:16 38.76593 -9.14411 334 ft 12 kts 349°
2026-05-03 22:17 38.76668 -9.14375 336 ft 9 kts 22°
2026-05-03 22:17 38.76672 -9.14373 334 ft 0 kts 22°
2026-05-03 22:17 38.76774 -9.14319 339 ft 52 kts 22°
2026-05-03 22:17 38.77355 -9.14010 363 ft 125 kts 22°
2026-05-03 22:18 38.78316 -9.13490 589 ft 160 kts 22°
2026-05-03 22:18 38.79347 -9.12919 1274 ft 162 kts 20°
2026-05-03 22:18 38.80399 -9.12350 1965 ft 171 kts 19°
2026-05-03 22:18 38.81558 -9.11696 2385 ft 194 kts 24°
2026-05-03 22:19 38.82787 -9.10780 2787 ft 220 kts 28°
2026-05-03 22:19 38.84174 -9.09719 3354 ft 245 kts 27°
2026-05-03 22:19 38.85681 -9.08560 4160 ft 259 kts 28°
2026-05-03 22:19 38.87251 -9.07343 5103 ft 267 kts 28°
2026-05-03 22:20 38.88865 -9.06087 6052 ft 275 kts 29°
2026-05-03 22:20 38.90415 -9.04572 6951 ft 285 kts 40°
2026-05-03 22:20 38.91892 -9.02833 7887 ft 291 kts 40°
2026-05-03 22:20 38.93395 -9.01069 8850 ft 296 kts 40°
2026-05-03 22:21 38.94934 -8.99270 9770 ft 302 kts 40°
2026-05-03 22:21 38.96514 -8.97432 10478 ft 316 kts 40°
2026-05-03 22:21 38.98202 -8.95473 10868 ft 338 kts 40°
2026-05-03 22:21 38.99977 -8.93407 11566 ft 348 kts 40°
2026-05-03 22:22 39.01785 -8.91303 12384 ft 354 kts 40°
2026-05-03 22:22 39.03622 -8.89164 13215 ft 359 kts 40°
2026-05-03 22:22 39.05486 -8.86987 14012 ft 364 kts 40°
2026-05-03 22:22 39.07375 -8.84770 14711 ft 370 kts 40°
2026-05-03 22:23 39.09287 -8.82522 15404 ft 376 kts 40°
2026-05-03 22:23 39.11231 -8.80233 16093 ft 381 kts 40°
2026-05-03 22:23 39.13201 -8.77915 16769 ft 387 kts 40°
2026-05-03 22:23 39.15202 -8.75562 17447 ft 392 kts 40°
2026-05-03 22:24 39.16534 -8.73980 17895 ft 396 kts 42°
2026-05-03 22:24 39.18412 -8.71332 18528 ft 403 kts 47°
2026-05-03 22:24 39.20271 -8.68607 19152 ft 407 kts 47°
2026-05-03 22:24 39.22145 -8.65854 19769 ft 411 kts 47°
2026-05-03 22:25 39.24042 -8.63066 20382 ft 415 kts 47°
2026-05-03 22:25 39.25959 -8.60254 20987 ft 419 kts 46°
2026-05-03 22:25 39.27896 -8.57416 21611 ft 424 kts 46°
2026-05-03 22:25 39.29857 -8.54547 21985 ft 427 kts 46°
2026-05-03 22:26 39.31820 -8.51670 22074 ft 420 kts 46°
2026-05-03 22:26 39.33891 -8.49114 22078 ft 405 kts 32°
2026-05-03 22:26 39.36318 -8.47388 22080 ft 394 kts 15°
2026-05-03 22:26 39.38942 -8.46585 22085 ft 383 kts 359°
2026-05-03 22:27 39.41592 -8.46474 22078 ft 380 kts 354°
2026-05-03 22:27 39.44246 -8.46413 22083 ft 380 kts 354°
2026-05-03 22:27 39.46854 -8.46353 22078 ft 380 kts 355°
2026-05-03 22:27 39.49499 -8.46291 22082 ft 380 kts 355°
2026-05-03 22:28 39.52150 -8.46229 22084 ft 381 kts 355°
2026-05-03 22:28 39.54808 -8.46164 22081 ft 382 kts 355°
2026-05-03 22:28 39.57460 -8.46094 22081 ft 382 kts 355°
2026-05-03 22:28 39.60122 -8.46019 22081 ft 382 kts 355°
2026-05-03 22:29 39.62777 -8.45946 22084 ft 382 kts 355°
2026-05-03 22:29 39.65438 -8.45876 22082 ft 382 kts 355°
2026-05-03 22:29 39.68091 -8.45807 22083 ft 382 kts 355°
2026-05-03 22:29 39.70751 -8.45738 22083 ft 382 kts 355°
2026-05-03 22:30 39.73408 -8.45672 22100 ft 382 kts 355°
2026-05-03 22:30 39.76064 -8.45610 22095 ft 382 kts 355°
2026-05-03 22:30 39.78726 -8.45547 22092 ft 382 kts 355°
2026-05-03 22:30 39.81394 -8.45479 22092 ft 383 kts 355°
2026-05-03 22:31 39.84053 -8.45408 22088 ft 383 kts 355°
2026-05-03 22:31 39.86716 -8.45337 22088 ft 383 kts 355°
2026-05-03 22:31 39.89377 -8.45267 22088 ft 383 kts 355°
2026-05-03 22:31 39.92039 -8.45197 22088 ft 383 kts 355°
2026-05-03 22:32 39.94700 -8.45130 22119 ft 382 kts 355°
2026-05-03 22:32 39.97363 -8.45065 22113 ft 383 kts 355°
2026-05-03 22:32 40.00026 -8.45001 22105 ft 383 kts 355°
2026-05-03 22:32 40.02687 -8.44933 22101 ft 383 kts 355°
2026-05-03 22:33 40.05340 -8.44861 21868 ft 378 kts 355°
2026-05-03 22:33 40.07957 -8.44785 21607 ft 375 kts 355°
2026-05-03 22:33 40.10561 -8.44712 21346 ft 373 kts 355°
2026-05-03 22:33 40.13156 -8.44647 21088 ft 372 kts 355°
2026-05-03 22:34 40.15733 -8.44586 20830 ft 370 kts 355°
2026-05-03 22:34 40.18302 -8.44523 20593 ft 368 kts 356°
2026-05-03 22:34 40.20841 -8.44455 20220 ft 363 kts 356°
2026-05-03 22:34 40.23365 -8.44388 19770 ft 362 kts 356°
2026-05-03 22:35 40.25882 -8.44321 19316 ft 361 kts 356°
2026-05-03 22:35 40.28387 -8.44255 18868 ft 360 kts 356°
2026-05-03 22:35 40.30887 -8.44190 18433 ft 359 kts 356°
2026-05-03 22:35 40.33381 -8.44128 17944 ft 357 kts 356°
2026-05-03 22:36 40.35857 -8.44068 17502 ft 355 kts 356°
2026-05-03 22:36 40.38315 -8.44005 17079 ft 352 kts 357°
2026-05-03 22:36 40.40757 -8.43942 16652 ft 350 kts 357°
2026-05-03 22:36 40.43182 -8.43877 16229 ft 348 kts 357°
2026-05-03 22:37 40.45608 -8.43810 15810 ft 346 kts 357°
2026-05-03 22:37 40.48009 -8.43747 15397 ft 344 kts 357°
2026-05-03 22:37 40.50399 -8.43687 14984 ft 342 kts 358°
2026-05-03 22:37 40.52744 -8.43627 14578 ft 341 kts 358°
2026-05-03 22:38 40.55108 -8.43563 14172 ft 339 kts 358°
2026-05-03 22:38 40.57462 -8.43500 13747 ft 338 kts 358°
2026-05-03 22:38 40.59806 -8.43440 13316 ft 335 kts 358°
2026-05-03 22:38 40.62126 -8.43380 12911 ft 332 kts 358°
2026-05-03 22:39 40.64424 -8.43321 12491 ft 329 kts 358°
2026-05-03 22:39 40.66698 -8.43259 12145 ft 324 kts 358°
2026-05-03 22:39 40.68919 -8.43196 12014 ft 313 kts 358°
2026-05-03 22:39 40.71070 -8.43213 11755 ft 305 kts 351°
2026-05-03 22:40 40.73110 -8.43806 11422 ft 298 kts 337°
2026-05-03 22:40 40.74963 -8.44966 11072 ft 293 kts 329°
2026-05-03 22:40 40.76761 -8.46220 10700 ft 291 kts 329°
2026-05-03 22:40 40.78550 -8.47456 10298 ft 290 kts 329°
2026-05-03 22:41 40.80375 -8.48714 9497 ft 302 kts 330°
2026-05-03 22:41 40.82246 -8.50004 8861 ft 300 kts 330°
2026-05-03 22:41 40.84056 -8.51245 8446 ft 286 kts 330°
2026-05-03 22:41 40.85783 -8.52433 8067 ft 273 kts 330°
2026-05-03 22:42 40.87433 -8.53569 7697 ft 261 kts 330°
2026-05-03 22:42 40.89006 -8.54654 7355 ft 250 kts 330°
2026-05-03 22:42 40.90514 -8.55696 7019 ft 239 kts 330°
2026-05-03 22:42 40.91955 -8.56694 6701 ft 228 kts 330°
2026-05-03 22:43 40.93311 -8.57634 6403 ft 219 kts 331°
2026-05-03 22:43 40.94633 -8.58551 6097 ft 211 kts 331°
2026-05-03 22:43 40.95927 -8.59447 5805 ft 209 kts 331°
2026-05-03 22:43 40.97209 -8.60337 5520 ft 208 kts 331°
2026-05-03 22:44 40.98507 -8.61161 5242 ft 207 kts 340°
2026-05-03 22:44 40.99932 -8.61583 4956 ft 207 kts 347°
2026-05-03 22:44 41.01342 -8.61954 4669 ft 206 kts 347°
2026-05-03 22:44 41.02727 -8.62323 4393 ft 206 kts 347°
2026-05-03 22:45 41.04134 -8.62698 4084 ft 206 kts 347°
2026-05-03 22:45 41.05537 -8.63073 3791 ft 205 kts 347°
2026-05-03 22:45 41.06932 -8.63446 3513 ft 204 kts 347°
2026-05-03 22:45 41.08327 -8.63814 3218 ft 204 kts 347°
2026-05-03 22:46 41.09722 -8.64179 2933 ft 205 kts 348°
2026-05-03 22:46 41.11096 -8.64535 2730 ft 197 kts 348°
2026-05-03 22:46 41.12431 -8.64881 2415 ft 193 kts 348°
2026-05-03 22:46 41.13717 -8.65215 2154 ft 182 kts 348°
2026-05-03 22:47 41.14924 -8.65532 1917 ft 172 kts 348°
2026-05-03 22:47 41.16054 -8.65831 1698 ft 161 kts 348°
2026-05-03 22:47 41.17139 -8.66118 1482 ft 157 kts 348°
2026-05-03 22:47 41.18195 -8.66397 1277 ft 151 kts 348°
2026-05-03 22:48 41.19203 -8.66662 1083 ft 145 kts 348°
2026-05-03 22:48 41.20172 -8.66914 904 ft 138 kts 349°
2026-05-03 22:48 41.21099 -8.67155 725 ft 133 kts 348°
2026-05-03 22:48 41.22004 -8.67392 556 ft 132 kts 348°
2026-05-03 22:49 41.22900 -8.67623 372 ft 130 kts 348°
2026-05-03 22:49 41.23775 -8.67858 228 ft 120 kts 349°
2026-05-03 22:49 41.24458 -8.68035 208 ft 76 kts 348°
2026-05-03 22:49 41.24819 -8.68130 198 ft 37 kts 349°
2026-05-03 22:50 41.25068 -8.68178 192 ft 36 kts
2026-05-03 22:50 41.25277 -8.68102 179 ft 23 kts 30°
2026-05-03 22:50 41.25239 -8.68006 183 ft 14 kts 168°
2026-05-03 22:50 41.25154 -8.67985 188 ft 11 kts 169°
2026-05-03 22:51 41.25091 -8.67969 194 ft 8 kts 169°
2026-05-03 22:51 41.25036 -8.67954 192 ft 8 kts 169°
2026-05-03 22:51 41.24979 -8.67940 198 ft 8 kts 169°
2026-05-03 22:51 41.24926 -8.67927 196 ft 7 kts 169°
2026-05-03 22:52 41.24877 -8.67910 203 ft 11 kts 158°
2026-05-03 22:52 41.24782 -8.67839 213 ft 19 kts 155°
2026-05-03 22:52 41.24660 -8.67801 211 ft 16 kts 169°
2026-05-03 22:52 41.24558 -8.67775 217 ft 13 kts 169°
2026-05-03 22:53 41.24479 -8.67754 221 ft 10 kts 168°
2026-05-03 22:53 41.24417 -8.67738 224 ft 9 kts 169°
2026-05-03 22:53 41.24352 -8.67721 228 ft 10 kts 169°
2026-05-03 22:53 41.24288 -8.67681 232 ft 9 kts 133°
2026-05-03 22:54 41.24275 -8.67658 233 ft 0 kts 126°
2026-05-03 22:55 41.24270 -8.67650 234 ft 5 kts 126°
2026-05-03 22:55 41.24241 -8.67599 237 ft 8 kts 131°
2026-05-03 22:55 41.24180 -8.67569 238 ft 12 kts 168°
2026-05-03 22:55 41.24089 -8.67545 238 ft 14 kts 169°
2026-05-03 22:56 41.23990 -8.67520 238 ft 15 kts 168°
2026-05-03 22:56 41.23889 -8.67492 239 ft 15 kts 168°
2026-05-03 22:56 41.23821 -8.67455 240 ft 6 kts 112°
2026-05-03 22:56 41.23824 -8.67425 242 ft 1 kts 76°
2026-05-03 22:57 41.23826 -8.67418 243 ft 2 kts 76°
2026-05-03 22:57 41.23830 -8.67389 244 ft 3 kts 78°
2026-05-03 22:57 41.23832 -8.67378 245 ft 0 kts 78°